owner,sensor,date,latitude,longitude,vertical_datum,wind_speed,wind_to_direction,wind_speed_of_gust,qcFlag 
DISL,ioos:station:DISL:DISL:1,2019-03-01T03:40:00Z,30.2513,-88.0778,9.68,1.52,192.4,-9999.0,'1111122,1111122,1111122' 
DISL,ioos:station:DISL:DISL:1,2019-03-01T04:40:00Z,30.2513,-88.0778,9.68,2.07,248.5,-9999.0,'1111122,1111122,1111122' 
DISL,ioos:station:DISL:DISL:1,2019-03-01T05:40:00Z,30.2513,-88.0778,9.68,1.45,67.44,-9999.0,'1111122,1111122,1111122' 
DISL,ioos:station:DISL:DISL:1,2019-03-01T06:40:00Z,30.2513,-88.0778,9.68,1.69,115.3,-9999.0,'1111122,1111122,1111122' 
DISL,ioos:station:DISL:DISL:1,2019-03-01T07:40:00Z,30.2513,-88.0778,9.68,2.16,165.8,-9999.0,'1111122,1111122,1111122' 
DISL,ioos:station:DISL:DISL:1,2019-03-01T08:40:00Z,30.2513,-88.0778,9.68,1.71,236.1,-9999.0,'1111122,1111122,1111122' 
DISL,ioos:station:DISL:DISL:1,2019-03-01T09:40:00Z,30.2513,-88.0778,9.68,1.62,170.1,-9999.0,'1111122,1111122,1111122' 
DISL,ioos:station:DISL:DISL:1,2019-03-01T10:40:00Z,30.2513,-88.0778,9.68,1.18,25.87,-9999.0,'1111122,1111122,1111122' 
DISL,ioos:station:DISL:DISL:1,2019-03-01T11:40:00Z,30.2513,-88.0778,9.68,2.64,75.58,-9999.0,'1111122,1111122,1111122' 
DISL,ioos:station:DISL:DISL:1,2019-03-01T12:40:00Z,30.2513,-88.0778,9.68,3.2,121.7,-9999.0,'1111122,1111122,1111122' 
DISL,ioos:station:DISL:DISL:1,2019-03-01T13:40:00Z,30.2513,-88.0778,9.68,3.21,145.9,-9999.0,'1111122,1111122,1111122' 
DISL,ioos:station:DISL:DISL:1,2019-03-01T14:40:00Z,30.2513,-88.0778,9.68,1.69,173.6,-9999.0,'1111122,1111122,1111122' 
DISL,ioos:station:DISL:DISL:1,2019-03-01T15:40:00Z,30.2513,-88.0778,9.68,2.2,207.3,-9999.0,'1111122,1111122,1111122' 
DISL,ioos:station:DISL:DISL:1,2019-03-01T16:40:00Z,30.2513,-88.0778,9.68,2.26,203.5,-9999.0,'1111122,1111122,1111122' 
DISL,ioos:station:DISL:DISL:1,2019-03-01T17:40:00Z,30.2513,-88.0778,9.68,2.59,209.4,-9999.0,'1111122,1111122,1111122' 
DISL,ioos:station:DISL:DISL:1,2019-03-01T18:40:00Z,30.2513,-88.0778,9.68,3.26,193.2,-9999.0,'1111122,1111122,1111122' 
DISL,ioos:station:DISL:DISL:1,2019-03-01T20:10:00Z,30.2513,-88.0778,9.68,3.19,218.4,-9999.0,'1111122,1111122,1111122' 
DISL,ioos:station:DISL:DISL:1,2019-03-01T21:10:00Z,30.2513,-88.0778,9.68,2.24,221.9,-9999.0,'1111122,1111122,1111122' 
DISL,ioos:station:DISL:DISL:1,2019-03-01T22:10:00Z,30.2513,-88.0778,9.68,1.93,185.7,-9999.0,'1111122,1111122,1111122' 
DISL,ioos:station:DISL:DISL:1,2019-03-01T22:40:00Z,30.2513,-88.0778,9.68,2.37,200.2,-9999.0,'1111122,1111122,1111122' 
DISL,ioos:station:DISL:DISL:1,2019-03-01T23:40:00Z,30.2513,-88.0778,9.68,1.22,203.1,-9999.0,'1111122,1111122,1111122' 
DISL,ioos:station:DISL:DISL:1,2019-03-02T00:40:00Z,30.2513,-88.0778,9.68,1.33,198.5,-9999.0,'1111122,1111122,1111122' 
DISL,ioos:station:DISL:DISL:1,2019-03-02T01:40:00Z,30.2513,-88.0778,9.68,2.01,165.5,-9999.0,'1111122,1111122,1111122' 
DISL,ioos:station:DISL:DISL:1,2019-03-02T02:40:00Z,30.2513,-88.0778,9.68,1.22,209.7,-9999.0,'1111122,1111122,1111122' 
DISL,ioos:station:DISL:DISL:1,2019-03-02T03:40:00Z,30.2513,-88.0778,9.68,2.36,165.1,-9999.0,'1111122,1111122,1111122' 
DISL,ioos:station:DISL:DISL:1,2019-03-02T04:40:00Z,30.2513,-88.0778,9.68,2.59,169.4,-9999.0,'1111122,1111122,1111122' 
DISL,ioos:station:DISL:DISL:1,2019-03-02T05:40:00Z,30.2513,-88.0778,9.68,2.32,163.8,-9999.0,'1111122,1111122,1111122' 
DISL,ioos:station:DISL:DISL:1,2019-03-02T06:40:00Z,30.2513,-88.0778,9.68,0.99,159.6,-9999.0,'1111122,1111122,1111122' 
DISL,ioos:station:DISL:DISL:1,2019-03-02T07:40:00Z,30.2513,-88.0778,9.68,1.24,152.8,-9999.0,'1111122,1111122,1111122' 
DISL,ioos:station:DISL:DISL:1,2019-03-02T08:40:00Z,30.2513,-88.0778,9.68,1.4,175.3,-9999.0,'1111122,1111122,1111122' 
DISL,ioos:station:DISL:DISL:1,2019-03-02T09:40:00Z,30.2513,-88.0778,9.68,1.62,242.3,-9999.0,'1111122,1111122,1111122' 
DISL,ioos:station:DISL:DISL:1,2019-03-02T10:40:00Z,30.2513,-88.0778,9.68,2.88,312.1,-9999.0,'1111122,1111122,1111122' 
DISL,ioos:station:DISL:DISL:1,2019-03-02T11:40:00Z,30.2513,-88.0778,9.68,1.98,2.664,-9999.0,'1111122,1111122,1111122' 
DISL,ioos:station:DISL:DISL:1,2019-03-02T12:40:00Z,30.2513,-88.0778,9.68,1.36,344.9,-9999.0,'1111122,1111122,1111122' 
DISL,ioos:station:DISL:DISL:1,2019-03-02T13:40:00Z,30.2513,-88.0778,9.68,1.64,114.2,-9999.0,'1111122,1111122,1111122' 
DISL,ioos:station:DISL:DISL:1,2019-03-02T14:40:00Z,30.2513,-88.0778,9.68,0.09,16.12,-9999.0,'1111122,1111122,1111122' 
DISL,ioos:station:DISL:DISL:1,2019-03-02T15:40:00Z,30.2513,-88.0778,9.68,2.25,339.3,-9999.0,'1111122,1111122,1111122' 
DISL,ioos:station:DISL:DISL:1,2019-03-02T16:40:00Z,30.2513,-88.0778,9.68,2.3,292.0,-9999.0,'1111122,1111122,1111122' 
DISL,ioos:station:DISL:DISL:1,2019-03-02T17:40:00Z,30.2513,-88.0778,9.68,2.34,60.13,-9999.0,'1111122,1111122,1111122' 
DISL,ioos:station:DISL:DISL:1,2019-03-02T18:40:00Z,30.2513,-88.0778,9.68,1.8,108.8,-9999.0,'1111122,1111122,1111122' 
DISL,ioos:station:DISL:DISL:1,2019-03-02T19:40:00Z,30.2513,-88.0778,9.68,0.83,44.89,-9999.0,'1111122,1111122,1111122' 
DISL,ioos:station:DISL:DISL:1,2019-03-02T20:40:00Z,30.2513,-88.0778,9.68,0.88,230.5,-9999.0,'1111122,1111122,1111122' 
DISL,ioos:station:DISL:DISL:1,2019-03-02T21:40:00Z,30.2513,-88.0778,9.68,2.21,347.3,-9999.0,'1111122,1111122,1111122' 
DISL,ioos:station:DISL:DISL:1,2019-03-02T22:40:00Z,30.2513,-88.0778,9.68,2.71,2.655,-9999.0,'1111122,1111122,1111122' 
DISL,ioos:station:DISL:DISL:1,2019-03-02T23:40:00Z,30.2513,-88.0778,9.68,2.16,7.895,-9999.0,'1111122,1111122,1111122' 
DISL,ioos:station:DISL:DISL:1,2019-03-03T00:40:00Z,30.2513,-88.0778,9.68,1.28,48.19,-9999.0,'1111122,1111122,1111122' 
DISL,ioos:station:DISL:DISL:1,2019-03-03T01:40:00Z,30.2513,-88.0778,9.68,1.33,15.78,-9999.0,'1111122,1111122,1111122' 
DISL,ioos:station:DISL:DISL:1,2019-03-03T02:40:00Z,30.2513,-88.0778,9.68,3.83,4.616,-9999.0,'1111122,1111122,1111122' 
DISL,ioos:station:DISL:DISL:1,2019-03-03T03:40:00Z,30.2513,-88.0778,9.68,4.12,4.245,-9999.0,'1111122,1111122,1111122' 
DISL,ioos:station:DISL:DISL:1,2019-03-03T04:40:00Z,30.2513,-88.0778,9.68,4.97,0.577,-9999.0,'1111122,1111122,1111122' 
DISL,ioos:station:DISL:DISL:1,2019-03-03T05:40:00Z,30.2513,-88.0778,9.68,4.48,18.15,-9999.0,'1111122,1111122,1111122' 
DISL,ioos:station:DISL:DISL:1,2019-03-03T06:40:00Z,30.2513,-88.0778,9.68,1.99,31.78,-9999.0,'1111122,1111122,1111122' 
DISL,ioos:station:DISL:DISL:1,2019-03-03T07:40:00Z,30.2513,-88.0778,9.68,1.78,30.31,-9999.0,'1111122,1111122,1111122' 
DISL,ioos:station:DISL:DISL:1,2019-03-03T08:40:00Z,30.2513,-88.0778,9.68,2.99,31.4,-9999.0,'1111122,1111122,1111122' 
DISL,ioos:station:DISL:DISL:1,2019-03-03T09:40:00Z,30.2513,-88.0778,9.68,2.79,54.64,-9999.0,'1111122,1111122,1111122' 
DISL,ioos:station:DISL:DISL:1,2019-03-03T10:40:00Z,30.2513,-88.0778,9.68,2.79,61.37,-9999.0,'1111122,1111122,1111122' 
DISL,ioos:station:DISL:DISL:1,2019-03-03T11:40:00Z,30.2513,-88.0778,9.68,3.37,49.49,-9999.0,'1111122,1111122,1111122' 
DISL,ioos:station:DISL:DISL:1,2019-03-03T12:40:00Z,30.2513,-88.0778,9.68,2.9,122.4,-9999.0,'1111122,1111122,1111122' 
DISL,ioos:station:DISL:DISL:1,2019-03-03T13:40:00Z,30.2513,-88.0778,9.68,3.16,133.0,-9999.0,'1111122,1111122,1111122' 
DISL,ioos:station:DISL:DISL:1,2019-03-03T14:40:00Z,30.2513,-88.0778,9.68,3.63,139.5,-9999.0,'1111122,1111122,1111122' 
DISL,ioos:station:DISL:DISL:1,2019-03-03T15:40:00Z,30.2513,-88.0778,9.68,4.15,161.8,-9999.0,'1111122,1111122,1111122' 
DISL,ioos:station:DISL:DISL:1,2019-03-03T16:40:00Z,30.2513,-88.0778,9.68,3.07,161.2,-9999.0,'1111122,1111122,1111122' 
DISL,ioos:station:DISL:DISL:1,2019-03-03T17:40:00Z,30.2513,-88.0778,9.68,2.61,168.5,-9999.0,'1111122,1111122,1111122' 
DISL,ioos:station:DISL:DISL:1,2019-03-03T18:40:00Z,30.2513,-88.0778,9.68,3.9,196.5,-9999.0,'1111122,1111122,1111122' 
DISL,ioos:station:DISL:DISL:1,2019-03-03T19:40:00Z,30.2513,-88.0778,9.68,4.13,227.4,-9999.0,'1111122,1111122,1111122' 
DISL,ioos:station:DISL:DISL:1,2019-03-03T20:40:00Z,30.2513,-88.0778,9.68,4.08,237.2,-9999.0,'1111122,1111122,1111122' 
DISL,ioos:station:DISL:DISL:1,2019-03-03T21:40:00Z,30.2513,-88.0778,9.68,4.09,242.5,-9999.0,'1111122,1111122,1111122' 
DISL,ioos:station:DISL:DISL:1,2019-03-03T22:40:00Z,30.2513,-88.0778,9.68,7.84,332.6,-9999.0,'1111122,1111122,1111122' 
DISL,ioos:station:DISL:DISL:1,2019-03-03T23:40:00Z,30.2513,-88.0778,9.68,3.38,311.4,-9999.0,'1111122,1111122,1111122' 
DISL,ioos:station:DISL:DISL:1,2019-03-04T00:40:00Z,30.2513,-88.0778,9.68,6.54,325.4,-9999.0,'1111122,1111122,1111122' 
DISL,ioos:station:DISL:DISL:1,2019-03-04T01:40:00Z,30.2513,-88.0778,9.68,9.12,341.5,-9999.0,'1111122,1111122,1111122' 
DISL,ioos:station:DISL:DISL:1,2019-03-04T02:40:00Z,30.2513,-88.0778,9.68,8.22,336.8,-9999.0,'1111122,1111122,1111122' 
DISL,ioos:station:DISL:DISL:1,2019-03-04T03:40:00Z,30.2513,-88.0778,9.68,8.78,335.9,-9999.0,'1111122,1111122,1111122' 
DISL,ioos:station:DISL:DISL:1,2019-03-04T04:40:00Z,30.2513,-88.0778,9.68,8.51,342.3,-9999.0,'1111122,1111122,1111122' 
DISL,ioos:station:DISL:DISL:1,2019-03-04T05:40:00Z,30.2513,-88.0778,9.68,9.86,343.7,-9999.0,'1111122,1111122,1111122' 
DISL,ioos:station:DISL:DISL:1,2019-03-04T06:40:00Z,30.2513,-88.0778,9.68,10.83,338.4,-9999.0,'1111122,1111122,1111122' 
DISL,ioos:station:DISL:DISL:1,2019-03-04T07:40:00Z,30.2513,-88.0778,9.68,10.0,348.7,-9999.0,'1111122,1111122,1111122' 
DISL,ioos:station:DISL:DISL:1,2019-03-04T08:40:00Z,30.2513,-88.0778,9.68,8.95,336.4,-9999.0,'1111122,1111122,1111122' 
DISL,ioos:station:DISL:DISL:1,2019-03-04T09:40:00Z,30.2513,-88.0778,9.68,10.48,1.818,-9999.0,'1111122,1111122,1111122' 
DISL,ioos:station:DISL:DISL:1,2019-03-04T10:40:00Z,30.2513,-88.0778,9.68,11.2,339.1,-9999.0,'1111122,1111122,1111122' 
DISL,ioos:station:DISL:DISL:1,2019-03-04T11:40:00Z,30.2513,-88.0778,9.68,9.95,342.2,-9999.0,'1111122,1111122,1111122' 
DISL,ioos:station:DISL:DISL:1,2019-03-04T12:40:00Z,30.2513,-88.0778,9.68,9.91,341.8,-9999.0,'1111122,1111122,1111122' 
DISL,ioos:station:DISL:DISL:1,2019-03-04T13:40:00Z,30.2513,-88.0778,9.68,9.66,350.9,-9999.0,'1111122,1111122,1111122' 
DISL,ioos:station:DISL:DISL:1,2019-03-04T14:40:00Z,30.2513,-88.0778,9.68,10.22,346.3,-9999.0,'1111122,1111122,1111122' 
DISL,ioos:station:DISL:DISL:1,2019-03-04T15:40:00Z,30.2513,-88.0778,9.68,9.82,350.7,-9999.0,'1111122,1111122,1111122' 
DISL,ioos:station:DISL:DISL:1,2019-03-04T16:40:00Z,30.2513,-88.0778,9.68,9.0,0.218,-9999.0,'1111122,1111122,1111122' 
DISL,ioos:station:DISL:DISL:1,2019-03-04T17:40:00Z,30.2513,-88.0778,9.68,9.29,4.713,-9999.0,'1111122,1111122,1111122' 
DISL,ioos:station:DISL:DISL:1,2019-03-04T18:40:00Z,30.2513,-88.0778,9.68,9.68,0.74,-9999.0,'1111122,1111122,1111122' 
DISL,ioos:station:DISL:DISL:1,2019-03-04T19:40:00Z,30.2513,-88.0778,9.68,9.99,6.873,-9999.0,'1111122,1111122,1111122' 
DISL,ioos:station:DISL:DISL:1,2019-03-04T20:40:00Z,30.2513,-88.0778,9.68,9.82,5.07,-9999.0,'1111122,1111122,1111122' 
DISL,ioos:station:DISL:DISL:1,2019-03-04T21:40:00Z,30.2513,-88.0778,9.68,9.18,16.04,-9999.0,'1111122,1111122,1111122' 
DISL,ioos:station:DISL:DISL:1,2019-03-04T22:40:00Z,30.2513,-88.0778,9.68,8.79,11.83,-9999.0,'1111122,1111122,1111122' 
DISL,ioos:station:DISL:DISL:1,2019-03-04T23:40:00Z,30.2513,-88.0778,9.68,9.01,338.6,-9999.0,'1111122,1111122,1111122' 
DISL,ioos:station:DISL:DISL:1,2019-03-05T00:40:00Z,30.2513,-88.0778,9.68,6.86,10.4,-9999.0,'1111122,1111122,1111122' 
DISL,ioos:station:DISL:DISL:1,2019-03-05T01:40:00Z,30.2513,-88.0778,9.68,7.23,20.45,-9999.0,'1111122,1111122,1111122' 
DISL,ioos:station:DISL:DISL:1,2019-03-05T02:40:00Z,30.2513,-88.0778,9.68,5.8,336.2,-9999.0,'1111122,1111122,1111122' 
DISL,ioos:station:DISL:DISL:1,2019-03-05T03:40:00Z,30.2513,-88.0778,9.68,6.19,347.4,-9999.0,'1111122,1111122,1111122' 
DISL,ioos:station:DISL:DISL:1,2019-03-05T04:40:00Z,30.2513,-88.0778,9.68,7.52,342.5,-9999.0,'1111122,1111122,1111122' 
DISL,ioos:station:DISL:DISL:1,2019-03-05T05:40:00Z,30.2513,-88.0778,9.68,9.23,350.5,-9999.0,'1111122,1111122,1111122' 
DISL,ioos:station:DISL:DISL:1,2019-03-05T06:40:00Z,30.2513,-88.0778,9.68,9.57,335.6,-9999.0,'1111122,1111122,1111122' 
DISL,ioos:station:DISL:DISL:1,2019-03-05T07:40:00Z,30.2513,-88.0778,9.68,8.85,340.4,-9999.0,'1111122,1111122,1111122' 
DISL,ioos:station:DISL:DISL:1,2019-03-05T08:40:00Z,30.2513,-88.0778,9.68,8.5,346.7,-9999.0,'1111122,1111122,1111122' 
DISL,ioos:station:DISL:DISL:1,2019-03-05T09:40:00Z,30.2513,-88.0778,9.68,10.26,344.6,-9999.0,'1111122,1111122,1111122' 
DISL,ioos:station:DISL:DISL:1,2019-03-05T10:40:00Z,30.2513,-88.0778,9.68,10.47,345.1,-9999.0,'1111122,1111122,1111122' 
DISL,ioos:station:DISL:DISL:1,2019-03-05T11:40:00Z,30.2513,-88.0778,9.68,9.22,343.1,-9999.0,'1111122,1111122,1111122' 
DISL,ioos:station:DISL:DISL:1,2019-03-05T12:40:00Z,30.2513,-88.0778,9.68,10.14,347.7,-9999.0,'1111122,1111122,1111122' 
DISL,ioos:station:DISL:DISL:1,2019-03-05T13:40:00Z,30.2513,-88.0778,9.68,8.76,358.0,-9999.0,'1111122,1111122,1111122' 
DISL,ioos:station:DISL:DISL:1,2019-03-05T14:40:00Z,30.2513,-88.0778,9.68,7.81,2.965,-9999.0,'1111122,1111122,1111122' 
DISL,ioos:station:DISL:DISL:1,2019-03-05T15:40:00Z,30.2513,-88.0778,9.68,8.12,358.4,-9999.0,'1111122,1111122,1111122' 
DISL,ioos:station:DISL:DISL:1,2019-03-05T16:40:00Z,30.2513,-88.0778,9.68,7.11,359.1,-9999.0,'1111122,1111122,1111122' 
DISL,ioos:station:DISL:DISL:1,2019-03-05T17:40:00Z,30.2513,-88.0778,9.68,6.84,9.99,-9999.0,'1111122,1111122,1111122' 
DISL,ioos:station:DISL:DISL:1,2019-03-05T18:40:00Z,30.2513,-88.0778,9.68,6.45,9.21,-9999.0,'1111122,1111122,1111122' 
DISL,ioos:station:DISL:DISL:1,2019-03-05T19:40:00Z,30.2513,-88.0778,9.68,7.21,13.97,-9999.0,'1111122,1111122,1111122' 
DISL,ioos:station:DISL:DISL:1,2019-03-05T20:40:00Z,30.2513,-88.0778,9.68,6.73,8.64,-9999.0,'1111122,1111122,1111122' 
DISL,ioos:station:DISL:DISL:1,2019-03-05T22:40:00Z,30.2513,-88.0778,9.68,7.37,331.9,-9999.0,'1111122,1111122,1111122' 
DISL,ioos:station:DISL:DISL:1,2019-03-05T23:40:00Z,30.2513,-88.0778,9.68,7.01,332.3,-9999.0,'1111122,1111122,1111122' 
DISL,ioos:station:DISL:DISL:1,2019-03-06T00:40:00Z,30.2513,-88.0778,9.68,7.51,338.8,-9999.0,'1111122,1111122,1111122' 
DISL,ioos:station:DISL:DISL:1,2019-03-06T01:40:00Z,30.2513,-88.0778,9.68,7.21,343.6,-9999.0,'1111122,1111122,1111122' 
DISL,ioos:station:DISL:DISL:1,2019-03-06T02:40:00Z,30.2513,-88.0778,9.68,7.2,340.3,-9999.0,'1111122,1111122,1111122' 
DISL,ioos:station:DISL:DISL:1,2019-03-06T03:40:00Z,30.2513,-88.0778,9.68,7.87,340.5,-9999.0,'1111122,1111122,1111122' 
DISL,ioos:station:DISL:DISL:1,2019-03-06T04:40:00Z,30.2513,-88.0778,9.68,8.59,330.8,-9999.0,'1111122,1111122,1111122' 
DISL,ioos:station:DISL:DISL:1,2019-03-06T05:40:00Z,30.2513,-88.0778,9.68,9.27,340.9,-9999.0,'1111122,1111122,1111122' 
DISL,ioos:station:DISL:DISL:1,2019-03-06T06:40:00Z,30.2513,-88.0778,9.68,9.73,343.7,-9999.0,'1111122,1111122,1111122' 
DISL,ioos:station:DISL:DISL:1,2019-03-06T07:40:00Z,30.2513,-88.0778,9.68,9.46,348.3,-9999.0,'1111122,1111122,1111122' 
DISL,ioos:station:DISL:DISL:1,2019-03-06T08:40:00Z,30.2513,-88.0778,9.68,9.22,357.8,-9999.0,'1111122,1111122,1111122' 
DISL,ioos:station:DISL:DISL:1,2019-03-06T09:40:00Z,30.2513,-88.0778,9.68,8.18,359.0,-9999.0,'1111122,1111122,1111122' 
DISL,ioos:station:DISL:DISL:1,2019-03-06T10:40:00Z,30.2513,-88.0778,9.68,8.33,358.6,-9999.0,'1111122,1111122,1111122' 
DISL,ioos:station:DISL:DISL:1,2019-03-06T11:40:00Z,30.2513,-88.0778,9.68,8.7,13.12,-9999.0,'1111122,1111122,1111122' 
DISL,ioos:station:DISL:DISL:1,2019-03-06T12:40:00Z,30.2513,-88.0778,9.68,9.72,23.8,-9999.0,'1111122,1111122,1111122' 
DISL,ioos:station:DISL:DISL:1,2019-03-06T13:40:00Z,30.2513,-88.0778,9.68,8.72,31.34,-9999.0,'1111122,1111122,1111122' 
DISL,ioos:station:DISL:DISL:1,2019-03-06T14:40:00Z,30.2513,-88.0778,9.68,7.6,27.16,-9999.0,'1111122,1111122,1111122' 
DISL,ioos:station:DISL:DISL:1,2019-03-06T15:40:00Z,30.2513,-88.0778,9.68,5.3,38.05,-9999.0,'1111122,1111122,1111122' 
DISL,ioos:station:DISL:DISL:1,2019-03-06T16:40:00Z,30.2513,-88.0778,9.68,5.16,14.56,-9999.0,'1111122,1111122,1111122' 
DISL,ioos:station:DISL:DISL:1,2019-03-06T17:40:00Z,30.2513,-88.0778,9.68,4.98,13.94,-9999.0,'1111122,1111122,1111122' 
DISL,ioos:station:DISL:DISL:1,2019-03-06T18:40:00Z,30.2513,-88.0778,9.68,6.23,19.69,-9999.0,'1111122,1111122,1111122' 
DISL,ioos:station:DISL:DISL:1,2019-03-06T19:40:00Z,30.2513,-88.0778,9.68,5.13,29.55,-9999.0,'1111122,1111122,1111122' 
DISL,ioos:station:DISL:DISL:1,2019-03-06T20:40:00Z,30.2513,-88.0778,9.68,5.61,27.54,-9999.0,'1111122,1111122,1111122' 
DISL,ioos:station:DISL:DISL:1,2019-03-06T21:40:00Z,30.2513,-88.0778,9.68,4.19,29.58,-9999.0,'1111122,1111122,1111122' 
DISL,ioos:station:DISL:DISL:1,2019-03-06T22:40:00Z,30.2513,-88.0778,9.68,3.26,12.74,-9999.0,'1111122,1111122,1111122' 
DISL,ioos:station:DISL:DISL:1,2019-03-06T23:40:00Z,30.2513,-88.0778,9.68,2.72,350.3,-9999.0,'1111122,1111122,1111122' 
DISL,ioos:station:DISL:DISL:1,2019-03-07T00:40:00Z,30.2513,-88.0778,9.68,2.24,270.4,-9999.0,'1111122,1111122,1111122' 
DISL,ioos:station:DISL:DISL:1,2019-03-07T01:40:00Z,30.2513,-88.0778,9.68,2.52,272.6,-9999.0,'1111122,1111122,1111122' 
DISL,ioos:station:DISL:DISL:1,2019-03-07T02:40:00Z,30.2513,-88.0778,9.68,2.13,256.9,-9999.0,'1111122,1111122,1111122' 
DISL,ioos:station:DISL:DISL:1,2019-03-07T03:40:00Z,30.2513,-88.0778,9.68,1.26,267.3,-9999.0,'1111122,1111122,1111122' 
DISL,ioos:station:DISL:DISL:1,2019-03-07T04:40:00Z,30.2513,-88.0778,9.68,0.68,225.3,-9999.0,'1111122,1111122,1111122' 
DISL,ioos:station:DISL:DISL:1,2019-03-07T05:40:00Z,30.2513,-88.0778,9.68,1.25,320.1,-9999.0,'1111122,1111122,1111122' 
DISL,ioos:station:DISL:DISL:1,2019-03-07T06:40:00Z,30.2513,-88.0778,9.68,1.19,297.3,-9999.0,'1111122,1111122,1111122' 
DISL,ioos:station:DISL:DISL:1,2019-03-07T07:40:00Z,30.2513,-88.0778,9.68,1.46,290.2,-9999.0,'1111122,1111122,1111122' 
DISL,ioos:station:DISL:DISL:1,2019-03-07T08:40:00Z,30.2513,-88.0778,9.68,1.76,8.47,-9999.0,'1111122,1111122,1111122' 
DISL,ioos:station:DISL:DISL:1,2019-03-07T09:40:00Z,30.2513,-88.0778,9.68,2.25,32.46,-9999.0,'1111122,1111122,1111122' 
DISL,ioos:station:DISL:DISL:1,2019-03-07T10:40:00Z,30.2513,-88.0778,9.68,3.38,29.5,-9999.0,'1111122,1111122,1111122' 
DISL,ioos:station:DISL:DISL:1,2019-03-07T11:40:00Z,30.2513,-88.0778,9.68,3.46,41.92,-9999.0,'1111122,1111122,1111122' 
DISL,ioos:station:DISL:DISL:1,2019-03-07T12:40:00Z,30.2513,-88.0778,9.68,4.28,38.43,-9999.0,'1111122,1111122,1111122' 
DISL,ioos:station:DISL:DISL:1,2019-03-07T13:40:00Z,30.2513,-88.0778,9.68,3.84,40.78,-9999.0,'1111122,1111122,1111122' 
DISL,ioos:station:DISL:DISL:1,2019-03-07T14:40:00Z,30.2513,-88.0778,9.68,3.78,33.59,-9999.0,'1111122,1111122,1111122' 
DISL,ioos:station:DISL:DISL:1,2019-03-07T15:40:00Z,30.2513,-88.0778,9.68,2.91,26.2,-9999.0,'1111122,1111122,1111122' 
DISL,ioos:station:DISL:DISL:1,2019-03-07T16:40:00Z,30.2513,-88.0778,9.68,2.94,16.03,-9999.0,'1111122,1111122,1111122' 
DISL,ioos:station:DISL:DISL:1,2019-03-07T17:40:00Z,30.2513,-88.0778,9.68,3.44,1.258,-9999.0,'1111122,1111122,1111122' 
DISL,ioos:station:DISL:DISL:1,2019-03-07T18:40:00Z,30.2513,-88.0778,9.68,2.39,45.36,-9999.0,'1111122,1111122,1111122' 
DISL,ioos:station:DISL:DISL:1,2019-03-07T19:40:00Z,30.2513,-88.0778,9.68,4.9,120.7,-9999.0,'1111122,1111122,1111122' 
DISL,ioos:station:DISL:DISL:1,2019-03-07T20:40:00Z,30.2513,-88.0778,9.68,3.52,123.1,-9999.0,'1111122,1111122,1111122' 
DISL,ioos:station:DISL:DISL:1,2019-03-07T21:40:00Z,30.2513,-88.0778,9.68,3.72,145.0,-9999.0,'1111122,1111122,1111122' 
DISL,ioos:station:DISL:DISL:1,2019-03-07T22:40:00Z,30.2513,-88.0778,9.68,3.46,132.6,-9999.0,'1111122,1111122,1111122' 
DISL,ioos:station:DISL:DISL:1,2019-03-07T23:40:00Z,30.2513,-88.0778,9.68,2.99,133.4,-9999.0,'1111122,1111122,1111122' 
DISL,ioos:station:DISL:DISL:1,2019-03-08T00:40:00Z,30.2513,-88.0778,9.68,3.57,127.9,-9999.0,'1111122,1111122,1111122' 
DISL,ioos:station:DISL:DISL:1,2019-03-08T01:40:00Z,30.2513,-88.0778,9.68,2.93,137.5,-9999.0,'1111122,1111122,1111122' 
DISL,ioos:station:DISL:DISL:1,2019-03-08T02:40:00Z,30.2513,-88.0778,9.68,2.19,147.6,-9999.0,'1111122,1111122,1111122' 
DISL,ioos:station:DISL:DISL:1,2019-03-08T03:40:00Z,30.2513,-88.0778,9.68,4.13,146.4,-9999.0,'1111122,1111122,1111122' 
DISL,ioos:station:DISL:DISL:1,2019-03-08T04:40:00Z,30.2513,-88.0778,9.68,3.96,144.6,-9999.0,'1111122,1111122,1111122' 
DISL,ioos:station:DISL:DISL:1,2019-03-08T05:40:00Z,30.2513,-88.0778,9.68,2.5,152.3,-9999.0,'1111122,1111122,1111122' 
DISL,ioos:station:DISL:DISL:1,2019-03-08T06:40:00Z,30.2513,-88.0778,9.68,2.4,144.7,-9999.0,'1111122,1111122,1111122' 
DISL,ioos:station:DISL:DISL:1,2019-03-08T07:40:00Z,30.2513,-88.0778,9.68,1.53,135.1,-9999.0,'1111122,1111122,1111122' 
DISL,ioos:station:DISL:DISL:1,2019-03-08T08:40:00Z,30.2513,-88.0778,9.68,2.12,138.2,-9999.0,'1111122,1111122,1111122' 
DISL,ioos:station:DISL:DISL:1,2019-03-08T09:40:00Z,30.2513,-88.0778,9.68,2.93,135.7,-9999.0,'1111122,1111122,1111122' 
DISL,ioos:station:DISL:DISL:1,2019-03-08T10:40:00Z,30.2513,-88.0778,9.68,1.92,128.4,-9999.0,'1111122,1111122,1111122' 
DISL,ioos:station:DISL:DISL:1,2019-03-08T11:40:00Z,30.2513,-88.0778,9.68,2.58,131.5,-9999.0,'1111122,1111122,1111122' 
DISL,ioos:station:DISL:DISL:1,2019-03-08T12:40:00Z,30.2513,-88.0778,9.68,2.92,130.7,-9999.0,'1111122,1111122,1111122' 
DISL,ioos:station:DISL:DISL:1,2019-03-08T13:40:00Z,30.2513,-88.0778,9.68,2.28,141.0,-9999.0,'1111122,1111122,1111122' 
DISL,ioos:station:DISL:DISL:1,2019-03-08T17:10:00Z,30.2513,-88.0778,9.68,2.68,128.3,-9999.0,'1111122,1111122,1111122' 
DISL,ioos:station:DISL:DISL:1,2019-03-08T17:40:00Z,30.2513,-88.0778,9.68,2.63,128.5,-9999.0,'1111122,1111122,1111122' 
DISL,ioos:station:DISL:DISL:1,2019-03-08T18:40:00Z,30.2513,-88.0778,9.68,3.28,126.1,-9999.0,'1111122,1111122,1111122' 
DISL,ioos:station:DISL:DISL:1,2019-03-08T19:40:00Z,30.2513,-88.0778,9.68,3.1,133.0,-9999.0,'1111122,1111122,1111122' 
DISL,ioos:station:DISL:DISL:1,2019-03-08T20:40:00Z,30.2513,-88.0778,9.68,2.57,127.1,-9999.0,'1111122,1111122,1111122' 
DISL,ioos:station:DISL:DISL:1,2019-03-08T21:40:00Z,30.2513,-88.0778,9.68,2.76,123.5,-9999.0,'1111122,1111122,1111122' 
DISL,ioos:station:DISL:DISL:1,2019-03-08T22:40:00Z,30.2513,-88.0778,9.68,2.47,120.8,-9999.0,'1111122,1111122,1111122' 
DISL,ioos:station:DISL:DISL:1,2019-03-08T23:40:00Z,30.2513,-88.0778,9.68,4.15,133.7,-9999.0,'1111122,1111122,1111122' 
DISL,ioos:station:DISL:DISL:1,2019-03-09T00:40:00Z,30.2513,-88.0778,9.68,3.04,147.7,-9999.0,'1111122,1111122,1111122' 
DISL,ioos:station:DISL:DISL:1,2019-03-09T01:40:00Z,30.2513,-88.0778,9.68,2.98,146.6,-9999.0,'1111122,1111122,1111122' 
DISL,ioos:station:DISL:DISL:1,2019-03-09T02:40:00Z,30.2513,-88.0778,9.68,4.07,158.7,-9999.0,'1111122,1111122,1111122' 
DISL,ioos:station:DISL:DISL:1,2019-03-09T03:40:00Z,30.2513,-88.0778,9.68,3.75,164.7,-9999.0,'1111122,1111122,1111122' 
DISL,ioos:station:DISL:DISL:1,2019-03-09T04:40:00Z,30.2513,-88.0778,9.68,3.86,156.0,-9999.0,'1111122,1111122,1111122' 
DISL,ioos:station:DISL:DISL:1,2019-03-09T05:40:00Z,30.2513,-88.0778,9.68,3.19,156.9,-9999.0,'1111122,1111122,1111122' 
DISL,ioos:station:DISL:DISL:1,2019-03-09T06:40:00Z,30.2513,-88.0778,9.68,2.76,155.5,-9999.0,'1111122,1111122,1111122' 
DISL,ioos:station:DISL:DISL:1,2019-03-09T07:40:00Z,30.2513,-88.0778,9.68,2.02,133.7,-9999.0,'1111122,1111122,1111122' 
DISL,ioos:station:DISL:DISL:1,2019-03-09T08:40:00Z,30.2513,-88.0778,9.68,2.17,125.3,-9999.0,'1111122,1111122,1111122' 
DISL,ioos:station:DISL:DISL:1,2019-03-09T09:40:00Z,30.2513,-88.0778,9.68,3.42,129.6,-9999.0,'1111122,1111122,1111122' 
DISL,ioos:station:DISL:DISL:1,2019-03-09T10:40:00Z,30.2513,-88.0778,9.68,3.53,127.2,-9999.0,'1111122,1111122,1111122' 
DISL,ioos:station:DISL:DISL:1,2019-03-09T11:40:00Z,30.2513,-88.0778,9.68,4.13,126.3,-9999.0,'1111122,1111122,1111122' 
DISL,ioos:station:DISL:DISL:1,2019-03-09T12:40:00Z,30.2513,-88.0778,9.68,4.61,128.3,-9999.0,'1111122,1111122,1111122' 
DISL,ioos:station:DISL:DISL:1,2019-03-09T13:40:00Z,30.2513,-88.0778,9.68,5.56,130.9,-9999.0,'1111122,1111122,1111122' 